DW5861 Weather Reports


Display with metric or nautical units.
time (UTC)temp
F
wind
direction
speed
MPH
gust
MPH
rain 1hr
in
rain 24hr
in
rain mn
in
humidity
%
barometer
mb
20260901105003 74 346 1.0 2.0 0.00 0.00 0.00 88 1015.1
20260901104504 74 343 1.0 2.0 0.00 0.00 0.00 87 1015.0
20260901104004 74 16 1.0 2.0 0.00 0.00 0.00 87 1015.0
20260901103503 74 27 1.0 2.0 0.00 0.00 0.00 87 1015.1
20260901103003 74 12 1.0 2.0 0.00 0.00 0.00 87 1015.0
20260901102524 75 348 1.0 2.0 0.00 0.00 0.00 87 1015.0
20260901102004 75 339 1.0 2.0 0.00 0.00 0.00 87 1015.0
20260901101503 75 336 0.0 1.0 0.00 0.00 0.00 87 1015.0
20260901101004 75 324 0.0 1.0 0.00 0.00 0.00 87 1015.1
20260901100503 75 332 0.0 1.0 0.00 0.00 0.00 87 1015.0
20260901100025 75 7 0.0 1.0 0.00 0.00 0.00 87 1015.0
20260901095525 75 54 0.0 1.0 0.00 0.00 0.00 86 1015.0
20260901095003 75 91 0.0 2.0 0.00 0.00 0.00 86 1015.0
20260901094503 75 93 0.0 2.0 0.00 0.00 0.00 86 1015.0
20260901094003 75 339 0.0 1.0 0.00 0.00 0.00 86 1015.0
20260901093524 75 347 0.0 1.0 0.00 0.00 0.00 86 1014.9
20260901093003 76 12 0.0 1.0 0.00 0.00 0.00 86 1014.9
20260901092503 76 359 0.0 1.0 0.00 0.00 0.00 86 1015.0
20260901092003 76 351 0.0 1.0 0.00 0.00 0.00 86 1015.1
20260901091504 76 5 0.0 1.0 0.00 0.00 0.00 86 1015.0
20260901091003 76 113 0.0 1.0 0.00 0.00 0.00 85 1015.1
20260901090525 76 6 0.0 1.0 0.00 0.00 0.00 85 1015.2
20260901090004 76 352 0.0 1.0 0.00 0.00 0.00 85 1015.1
20260901085503 76 350 0.0 1.0 0.00 0.00 0.00 85 1015.2
20260901085003 76 331 0.0 1.0 0.00 0.00 0.00 85 1015.1
20260901084503 76 354 0.0 1.0 0.00 0.00 0.00 84 1015.1
20260901084003 76 7 0.0 1.0 0.00 0.00 0.00 85 1015.1
20260901083503 77 31 0.0 1.0 0.00 0.00 0.00 85 1015.1
20260901083003 77 22 0.0 1.0 0.00 0.00 0.00 84 1015.1
20260901082525 77 347 0.0 1.0 0.00 0.00 0.00 84 1015.1
20260901082024 77 12 0.0 1.0 0.00 0.00 0.00 84 1015.1
20260901081503 77 15 1.0 1.0 0.00 0.00 0.00 84 1015.1
20260901081004 77 13 0.0 1.0 0.00 0.00 0.00 84 1015.0
20260901080503 77 346 0.0 1.0 0.00 0.00 0.00 84 1015.1
20260901080003 77 334 0.0 1.0 0.00 0.00 0.00 83 1015.1
20260901075504 77 341 0.0 1.0 0.00 0.00 0.00 83 1015.1
20260901075004 77 340 1.0 1.0 0.00 0.00 0.00 83 1015.1
20260901074503 78 345 1.0 1.0 0.00 0.00 0.00 83 1015.1
20260901074004 78 342 0.0 1.0 0.00 0.00 0.00 83 1015.1
20260901073503 78 319 0.0 1.0 0.00 0.00 0.00 82 1015.1
20260901073003 78 322 0.0 1.0 0.00 0.00 0.00 82 1015.1
20260901072524 78 350 0.0 1.0 0.00 0.00 0.00 82 1015.0
20260901072003 78 6 0.0 1.0 0.00 0.00 0.00 82 1015.1
20260901071525 79 354 1.0 2.0 0.00 0.00 0.00 81 1015.0
20260901071004 79 350 0.0 2.0 0.00 0.00 0.00 81 1015.0
20260901070504 79 350 0.0 1.0 0.00 0.00 0.00 80 1015.1
20260901070024 79 217 0.0 1.0 0.00 0.00 0.00 80 1015.2
20260901065503 79 163 0.0 1.0 0.00 0.00 0.00 79 1015.2
20260901065003 80 148 0.0 1.0 0.00 0.00 0.00 79 1015.2
20260901064503 80 163 0.0 2.0 0.00 0.00 0.00 78 1015.3
20260901064003 80 159 0.0 2.0 0.00 0.00 0.00 78 1015.4
20260901063525 80 147 0.0 1.0 0.00 0.00 0.00 78 1015.4
20260901063003 80 205 0.0 1.0 0.00 0.00 0.00 78 1015.3
20260901062504 80 203 1.0 2.0 0.00 0.00 0.00 78 1015.3
20260901062004 80 202 1.0 2.0 0.00 0.00 0.00 77 1015.3
20260901061503 81 196 1.0 2.0 0.00 0.00 0.00 77 1015.3
20260901061003 81 200 1.0 2.0 0.00 0.00 0.00 77 1015.4
20260901060525 81 208 1.0 2.0 0.00 0.00 0.00 77 1015.3
20260901060024 81 195 0.0 2.0 0.00 0.00 0.00 77 1015.4
20260901055503 81 155 0.0 2.0 0.00 0.00 0.00 76 1015.3
20260901055024 81 173 1.0 2.0 0.00 0.00 0.00 76 1015.3
20260901054504 82 170 1.0 2.0 0.00 0.00 0.00 76 1015.2
20260901054003 82 179 1.0 2.0 0.00 0.00 0.00 75 1015.2
20260901053503 82 190 1.0 2.0 0.00 0.00 0.00 75 1015.2
20260901053004 82 186 1.0 2.0 0.00 0.00 0.00 75 1015.2
20260901052503 82 176 1.0 2.0 0.00 0.00 0.00 74 1015.1
20260901052004 82 185 1.0 2.0 0.00 0.00 0.00 74 1015.2
20260901051503 83 183 1.0 2.0 0.00 0.00 0.00 74 1015.1
20260901051003 83 173 1.0 3.0 0.00 0.00 0.00 73 1015.0
20260901050503 83 178 1.0 3.0 0.00 0.00 0.00 73 1015.0
20260901050003 83 184 1.0 3.0 0.00 0.00 0.00 73 1015.0
20260901045524 83 183 2.0 4.0 0.00 0.00 0.00 73 1014.8
20260901045003 84 173 2.0 4.0 0.00 0.00 0.00 72 1014.8
20260901044505 84 156 2.0 3.0 0.00 0.00 0.00 72 1014.8
20260901044024 84 160 2.0 4.0 0.00 0.00 0.00 72 1014.7
20260901043504 84 165 2.0 4.0 0.00 0.00 0.00 71 1014.7
20260901043003 84 158 2.0 6.0 0.00 0.00 0.00 71 1014.6
20260901042503 84 155 2.0 6.0 0.00 0.00 0.00 71 1014.7
20260901042003 84 150 2.0 5.0 0.00 0.00 0.00 70 1014.6
20260901041503 84 155 2.0 7.0 0.00 0.00 0.00 70 1014.5
20260901041003 84 157 2.0 7.0 0.00 0.00 0.00 70 1014.5
20260901040503 84 153 2.0 6.0 0.00 0.00 0.00 70 1014.5
20260901040024 84 154 2.0 6.0 0.00 0.00 0.00 69 1014.5
20260901035504 84 160 2.0 3.0 0.00 0.00 0.00 69 1014.5
20260901035003 85 169 2.0 4.0 0.00 0.00 0.00 69 1014.5
20260901034504 85 166 1.0 4.0 0.00 0.00 0.00 69 1014.5
20260901034003 85 163 1.0 4.0 0.00 0.00 0.00 68 1014.4
20260901033503 85 169 1.0 4.0 0.00 0.00 0.00 68 1014.4
20260901033003 85 160 1.0 3.0 0.00 0.00 0.00 67 1014.3
20260901032503 86 147 2.0 3.0 0.00 0.00 0.00 67 1014.2
20260901032003 86 139 1.0 3.0 0.00 0.00 0.00 67 1014.1
20260901031524 86 143 1.0 3.0 0.00 0.00 0.00 66 1014.1
20260901031003 86 161 1.0 2.0 0.00 0.00 0.00 66 1014.1
20260901030503 86 159 1.0 3.0 0.00 0.00 0.00 65 1014.0
20260901030025 87 162 1.0 4.0 0.00 0.00 0.00 65 1014.0
20260901025503 87 168 2.0 4.0 0.00 0.00 0.00 64 1013.9
20260901025024 87 161 1.0 4.0 0.00 0.00 0.00 64 1013.9
20260901024503 87 151 1.0 5.0 0.00 0.00 0.00 63 1013.7
20260901024024 88 148 2.0 5.0 0.00 0.00 0.00 63 1013.7
20260901023503 88 152 2.0 7.0 0.00 0.00 0.00 63 1013.7
20260901023003 88 160 3.0 11.0 0.00 0.00 0.00 62 1013.5
20260901022503 88 157 3.0 11.0 0.00 0.00 0.00 62 1013.4
20260901022003 87 159 3.0 6.0 0.00 0.00 0.00 62 1013.4
20260901021503 87 170 2.0 6.0 0.00 0.00 0.00 61 1013.4
20260901021024 88 174 1.0 5.0 0.00 0.00 0.00 61 1013.3
20260901020503 88 167 0.0 2.0 0.00 0.00 0.00 60 1013.1
20260901020003 88 153 0.0 1.0 0.00 0.00 0.00 60 1013.1
20260901015503 88 100 0.0 1.0 0.00 0.00 0.00 59 1012.9
20260901015003 89 81 0.0 1.0 0.00 0.00 0.00 58 1012.8
20260901014503 89 156 0.0 2.0 0.00 0.00 0.00 58 1012.8
20260901014003 89 168 1.0 2.0 0.00 0.00 0.00 57 1012.7
20260901013503 90 87 1.0 2.0 0.00 0.00 0.00 57 1012.7
20260901013024 90 48 1.0 2.0 0.00 0.00 0.00 57 1012.7
20260901012503 91 52 1.0 2.0 0.00 0.00 0.00 56 1012.7
20260901012003 91 97 0.0 2.0 0.00 0.00 0.00 55 1012.7
20260901011503 91 113 0.0 2.0 0.00 0.00 0.00 54 1012.7
20260901011003 92 134 0.0 1.0 0.00 0.00 0.00 54 1012.7
20260901010524 92 174 0.0 2.0 0.00 0.00 0.00 53 1012.7
20260901010003 92 161 1.0 2.0 0.00 0.00 0.00 53 1012.6
20260901005503 93 164 1.0 2.0 0.00 0.00 0.00 52 1012.6
20260901005003 93 168 1.0 4.0 0.00 0.00 0.00 52 1012.6
20260901004503 93 168 1.0 4.0 0.00 0.00 0.00 52 1012.6
20260901004003 94 154 1.0 4.0 0.00 0.00 0.00 51 1012.6
20260901003503 94 142 2.0 4.0 0.00 0.00 0.00 51 1012.6
20260901003003 94 141 1.0 3.0 0.00 0.00 0.00 50 1012.5
20260901002503 94 140 1.0 3.0 0.00 0.00 0.00 50 1012.5
20260901002003 95 142 1.0 3.0 0.00 0.00 0.00 50 1012.5
20260901001503 95 152 2.0 4.0 0.00 0.00 0.00 49 1012.5
20260901001024 95 149 2.0 4.0 0.00 0.00 0.00 49 1012.5
20260901000503 95 126 1.0 4.0 0.00 0.00 0.00 49 1012.4
20260901000003 95 123 2.0 6.0 0.00 0.00 0.00 48 1012.4
20260831235503 95 110 2.0 6.0 0.00 0.00 0.00 48 1012.3
20260831235003 96 62 2.0 5.0 0.00 0.00 0.00 48 1012.3
20260831234503 96 60 2.0 5.0 0.00 0.00 0.00 48 1012.3
20260831234003 96 86 2.0 5.0 0.00 0.00 0.00 48 1012.4
20260831233503 96 90 2.0 5.0 0.00 0.00 0.00 47 1012.4
20260831233024 96 73 2.0 7.0 0.00 0.00 0.00 47 1012.4
20260831232503 96 92 3.0 7.0 0.00 0.00 0.00 46 1012.4
20260831232003 96 99 3.0 6.0 0.00 0.00 0.00 46 1012.4
20260831231503 96 86 2.0 7.0 0.00 0.00 0.00 46 1012.4
20260831231004 96 66 2.0 7.0 0.00 0.00 0.00 47 1012.3
20260831230504 96 93 2.0 5.0 0.00 0.00 0.00 49 1012.3
20260831230004 96 131 1.0 5.0 0.00 0.00 0.00 48 1012.3
20260831225504 96 36 1.0 4.0 0.00 0.00 0.00 49 1012.3
20260831225004 96 31 2.0 4.0 0.00 0.00 0.00 49 1012.3
20260831224504 96 33 1.0 4.0 0.00 0.00 0.00 50 1012.3
20260831224004 96 34 1.0 4.0 0.00 0.00 0.00 49 1012.3
20260831223504 96 40 2.0 5.0 0.00 0.00 0.00 49 1012.3
20260831223004 97 114 2.0 5.0 0.00 0.00 0.00 48 1012.3
20260831222504 97 62 2.0 6.0 0.00 0.00 0.00 48 1012.3
20260831222004 97 29 2.0 6.0 0.00 0.00 0.00 48 1012.4
20260831221504 98 35 3.0 6.0 0.00 0.00 0.00 46 1012.4
20260831221004 99 56 3.0 7.0 0.00 0.00 0.00 45 1012.5
20260831220504 99 52 3.0 7.0 0.00 0.00 0.00 45 1012.4
20260831220004 99 30 3.0 7.0 0.00 0.00 0.00 45 1012.4
20260831215504 100 75 3.0 7.0 0.00 0.00 0.00 44 1012.4
20260831215004 101 100 3.0 7.0 0.00 0.00 0.00 44 1012.5
20260831214504 100 54 3.0 11.0 0.00 0.00 0.00 45 1012.5
20260831214004 100 83 4.0 11.0 0.00 0.00 0.00 43 1012.6
20260831213504 100 126 4.0 11.0 0.00 0.00 0.00 43 1012.6
20260831213004 100 100 3.0 10.0 0.00 0.00 0.00 45 1012.7
20260831212504 100 125 3.0 10.0 0.00 0.00 0.00 45 1012.7
20260831212004 101 146 2.0 6.0 0.00 0.00 0.00 43 1012.7
20260831211504 99 163 2.0 5.0 0.00 0.00 0.00 46 1012.9
20260831211025 98 171 2.0 6.0 0.00 0.00 0.00 45 1012.9
20260831210504 99 157 2.0 6.0 0.00 0.00 0.00 47 1013.0
20260831210004 99 142 2.0 6.0 0.00 0.00 0.00 46 1013.2
20260831205504 99 114 3.0 9.0 0.00 0.00 0.00 45 1013.2
20260831205004 100 81 3.0 9.0 0.00 0.00 0.00 44 1013.3
20260831204525 100 48 3.0 8.0 0.00 0.00 0.00 43 1013.3
20260831204004 101 64 3.0 8.0 0.00 0.00 0.00 44 1013.4
20260831203504 99 53 2.0 6.0 0.00 0.00 0.00 46 1013.4
20260831203004 97 66 2.0 4.0 0.00 0.00 0.00 49 1013.5
20260831202504 97 103 2.0 5.0 0.00 0.00 0.00 49 1013.6
20260831202004 98 109 3.0 7.0 0.00 0.00 0.00 48 1013.7
20260831201504 99 114 4.0 8.0 0.00 0.00 0.00 46 1013.6
20260831201004 101 108 3.0 8.0 0.00 0.00 0.00 45 1013.7
20260831200504 100 72 3.0 7.0 0.00 0.00 0.00 48 1013.7
20260831200004 98 12 3.0 6.0 0.00 0.00 0.00 48 1013.8
20260831195504 98 38 3.0 7.0 0.00 0.00 0.00 47 1013.9
20260831195004 98 120 3.0 7.0 0.00 0.00 0.00 50 1014.0
20260831194504 96 96 3.0 5.0 0.00 0.00 0.00 49 1014.0
20260831194004 96 162 3.0 8.0 0.00 0.00 0.00 53 1014.1
20260831193504 98 145 3.0 8.0 0.00 0.00 0.00 50 1014.3
20260831193004 96 92 3.0 7.0 0.00 0.00 0.00 51 1014.4
20260831192504 98 97 2.0 7.0 0.00 0.00 0.00 51 1014.5
20260831192004 98 129 3.0 6.0 0.00 0.00 0.00 48 1014.5
20260831191504 100 127 3.0 7.0 0.00 0.00 0.00 47 1014.5
20260831191004 99 139 3.0 7.0 0.00 0.00 0.00 47 1014.6
20260831190504 100 145 2.0 7.0 0.00 0.00 0.00 47 1014.7
20260831190004 98 82 2.0 5.0 0.00 0.00 0.00 50 1014.9
20260831185504 98 152 4.0 11.0 0.00 0.00 0.00 47 1015.0
20260831185025 99 172 4.0 11.0 0.00 0.00 0.00 48 1014.9
20260831184504 97 100 3.0 6.0 0.00 0.00 0.00 50 1014.9
20260831184004 98 118 3.0 6.0 0.00 0.00 0.00 50 1015.0
20260831183504 98 165 3.0 6.0 0.00 0.00 0.00 49 1015.0
20260831183025 97 153 3.0 6.0 0.00 0.00 0.00 54 1015.1
20260831182504 96 86 3.0 5.0 0.00 0.00 0.00 52 1015.2
20260831182004 96 59 2.0 6.0 0.00 0.00 0.00 51 1015.3
20260831181525 97 146 3.0 7.0 0.00 0.00 0.00 50 1015.3
20260831181004 99 157 4.0 8.0 0.00 0.00 0.00 48 1015.4
20260831180525 99 139 3.0 8.0 0.00 0.00 0.00 48 1015.4
20260831180004 98 87 2.0 8.0 0.00 0.00 0.00 51 1015.5
20260831175504 96 129 3.0 8.0 0.00 0.00 0.00 53 1015.5
20260831175004 97 147 3.0 7.0 0.00 0.00 0.00 51 1015.5
20260831174504 97 111 3.0 7.0 0.00 0.00 0.00 53 1015.7
20260831174025 97 58 3.0 7.0 0.00 0.00 0.00 52 1015.7
20260831173525 95 33 3.0 7.0 0.00 0.00 0.00 53 1015.8
20260831173004 96 110 3.0 8.0 0.00 0.00 0.00 55 1015.9
20260831172504 98 132 3.0 9.0 0.00 0.00 0.00 51 1015.9
20260831172004 96 154 4.0 9.0 0.00 0.00 0.00 53 1016.0
20260831171504 97 135 3.0 8.0 0.00 0.00 0.00 54 1016.1
20260831171004 96 66 3.0 8.0 0.00 0.00 0.00 53 1016.1
20260831170504 96 148 3.0 8.0 0.00 0.00 0.00 56 1016.2
20260831170004 95 147 3.0 8.0 0.00 0.00 0.00 55 1016.2
20260831165504 96 105 3.0 7.0 0.00 0.00 0.00 55 1016.3
20260831165004 96 109 3.0 7.0 0.00 0.00 0.00 55 1016.3
20260831164504 95 136 3.0 7.0 0.00 0.00 0.00 56 1016.4
20260831164004 94 93 3.0 7.0 0.00 0.00 0.00 54 1016.4
20260831163504 93 61 3.0 7.0 0.00 0.00 0.00 57 1016.4
20260831163004 94 125 3.0 7.0 0.00 0.00 0.00 56 1016.5
20260831162504 94 69 3.0 9.0 0.00 0.00 0.00 60 1016.4
20260831162004 94 65 3.0 9.0 0.00 0.00 0.00 59 1016.6
20260831161504 94 146 3.0 7.0 0.00 0.00 0.00 60 1016.5
20260831161025 93 160 2.0 8.0 0.00 0.00 0.00 60 1016.6
20260831160504 93 238 2.0 8.0 0.00 0.00 0.00 62 1016.6
20260831160004 92 200 3.0 6.0 0.00 0.00 0.00 63 1016.6
20260831155525 92 137 3.0 6.0 0.00 0.00 0.00 63 1016.6
20260831155025 90 24 2.0 4.0 0.00 0.00 0.00 65 1016.6
20260831154504 90 343 3.0 4.0 0.00 0.00 0.00 66 1016.6
20260831154004 90 352 2.0 4.0 0.00 0.00 0.00 66 1016.7
20260831153504 90 49 2.0 4.0 0.00 0.00 0.00 68 1016.6
20260831153004 90 74 2.0 5.0 0.00 0.00 0.00 66 1016.6
20260831152504 90 69 2.0 5.0 0.00 0.00 0.00 65 1016.6
20260831152004 90 35 2.0 4.0 0.00 0.00 0.00 68 1016.5
20260831151504 89 54 2.0 5.0 0.00 0.00 0.00 67 1016.6
20260831151004 89 57 3.0 5.0 0.00 0.00 0.00 67 1016.6
20260831150504 89 73 2.0 4.0 0.00 0.00 0.00 69 1016.6
20260831150004 88 90 2.0 4.0 0.00 0.00 0.00 70 1016.6
20260831145525 88 75 2.0 5.0 0.00 0.00 0.00 70 1016.6
20260831145004 88 92 2.0 5.0 0.00 0.00 0.00 72 1016.6
20260831144504 88 149 2.0 5.0 0.00 0.00 0.00 73 1016.6
20260831144004 87 167 2.0 5.0 0.00 0.00 0.00 74 1016.6
20260831143504 86 100 1.0 3.0 0.00 0.00 0.00 77 1016.5
20260831143004 85 49 2.0 3.0 0.00 0.00 0.00 77 1016.5
20260831142504 84 356 1.0 3.0 0.00 0.00 0.00 79 1016.6
20260831142025 84 91 1.0 2.0 0.00 0.00 0.00 80 1016.5
20260831141504 83 135 1.0 3.0 0.00 0.00 0.00 80 1016.5
20260831141004 82 96 1.0 3.0 0.00 0.00 0.00 82 1016.4
20260831140504 81 356 1.0 4.0 0.00 0.00 0.00 84 1016.4
20260831140004 80 345 1.0 4.0 0.00 0.00 0.00 86 1016.4
20260831135504 79 352 1.0 2.0 0.00 0.00 0.00 87 1016.3
20260831135004 78 359 1.0 2.0 0.00 0.00 0.00 88 1016.4
20260831134504 77 51 1.0 3.0 0.00 0.00 0.00 88 1016.4
20260831134004 77 116 1.0 3.0 0.00 0.00 0.00 89 1016.3
20260831133504 76 111 0.0 2.0 0.00 0.00 0.00 89 1016.3
20260831133004 75 104 1.0 2.0 0.00 0.00 0.00 89 1016.3
20260831132525 75 160 0.0 2.0 0.00 0.00 0.00 89 1016.2
20260831132004 75 128 0.0 2.0 0.00 0.00 0.00 89 1016.2
20260831131504 75 76 0.0 1.0 0.00 0.00 0.00 89 1016.2
20260831131004 74 1 0.0 1.0 0.00 0.00 0.00 89 1016.1
20260831130504 74 14 0.0 1.0 0.00 0.00 0.00 89 1016.0
20260831130004 74 29 1.0 2.0 0.00 0.00 0.00 89 1015.9
20260831125504 74 38 0.0 2.0 0.00 0.00 0.00 89 1015.9
20260831125004 74 86 1.0 1.0 0.00 0.00 0.00 89 1015.8
20260831124504 74 70 1.0 2.0 0.00 0.00 0.00 89 1015.7
20260831124004 73 9 1.0 2.0 0.00 0.00 0.00 89 1015.6
20260831123504 73 336 1.0 1.0 0.00 0.00 0.00 89 1015.5
20260831123003 73 330 1.0 1.0 0.00 0.00 0.00 89 1015.4
20260831122503 73 329 0.0 1.0 0.00 0.00 0.00 89 1015.5
20260831122004 73 346 0.0 1.0 0.00 0.00 0.00 88 1015.5
20260831121504 73 20 0.0 1.0 0.00 0.00 0.00 88 1015.5
20260831121003 73 301 0.0 1.0 0.00 0.00 0.00 88 1015.3
20260831120503 73 347 0.0 1.0 0.00 0.00 0.00 88 1015.3
20260831120004 73 329 0.0 1.0 0.00 0.00 0.00 88 1015.2
20260831115525 73 293 0.0 1.0 0.00 0.00 0.00 88 1015.1
20260831115004 73 331 0.0 1.0 0.00 0.00 0.00 88 1015.1
20260831114504 74 324 0.0 1.0 0.00 0.00 0.00 88 1015.0
20260831114004 74 321 0.0 1.0 0.00 0.00 0.00 88 1015.0
20260831113504 74 356 0.0 1.0 0.00 0.00 0.00 88 1014.9
20260831113004 74 350 0.0 1.0 0.00 0.00 0.00 88 1014.9
20260831112525 74 340 0.0 1.0 0.00 0.00 0.00 88 1014.9
20260831112004 74 249 0.0 1.0 0.00 0.00 0.00 88 1014.8
20260831111504 74 256 0.0 1.0 0.00 0.00 0.00 87 1014.7
20260831111004 74 19 0.0 1.0 0.00 0.00 0.00 87 1014.6
20260831110504 74 99 0.0 1.0 0.00 0.00 0.00 87 1014.6
20260831110003 74 103 0.0 1.0 0.00 0.00 0.00 87 1014.7
20260831105503 74 106 0.0 1.0 0.00 0.00 0.00 87 1014.7